• In Portugal
  • List of Countries
  • For 7 days
  • Water Temperature
  • Satellite Maps
  • Weather Map
  • Weather Widgets
  • user-avatar
    Login

    Hourly Weather Aksaray

    Today, 20 September, Thursday

    Time Temperature Precipitation Wind Pressure Humidity
    00:00 +18°C° 0 mm 2 mps 679 mmHg 43%
    01:00 +17°C° 0 mm 2 mps 679 mmHg 46%
    02:00 +17°C° 0 mm 2 mps 679 mmHg 48%
    03:00 +16°C° 0 mm 2 mps 679 mmHg 50%
    04:00 +15°C° 0 mm 2 mps 679 mmHg 53%
    05:00 +15°C° 0 mm 2 mps 679 mmHg 55%
    06:00 +16°C° 0 mm 2 mps 679 mmHg 51%
    07:00 +18°C° 0 mm 2 mps 679 mmHg 48%
    08:00 +20°C° 0 mm 1 mps 680 mmHg 44%
    09:00 +21°C° 0 mm 2 mps 680 mmHg 39%
    10:00 +23°C° 0 mm 2 mps 680 mmHg 35%
    11:00 +25°C° 0 mm 2 mps 680 mmHg 30%
    12:00 +26°C° 0 mm 2 mps 680 mmHg 28%
    13:00 +27°C° 0 mm 2 mps 680 mmHg 26%
    14:00 +28°C° 0 mm 2 mps 679 mmHg 24%
    15:00 +27°C° 0 mm 2 mps 679 mmHg 24%
    16:00 +27°C° 0 mm 3 mps 679 mmHg 24%
    17:00 +27°C° 0 mm 3 mps 679 mmHg 24%
    18:00 +25°C° 0 mm 3 mps 679 mmHg 27%
    19:00 +24°C° 0 mm 2 mps 678 mmHg 29%
    20:00 +21°C° 0 mm 2 mps 678 mmHg 31%
    21:00 +20°C° 0 mm 2 mps 678 mmHg 32%
    22:00 +20°C° 0 mm 2 mps 678 mmHg 34%
    23:00 +20°C° 0 mm 1 mps 678 mmHg 35%

    Tomorrow, 21 September, Friday

    Time Temperature Precipitation Wind Pressure Humidity
    00:00 +19°C° 0 mm 1 mps 678 mmHg 37%
    01:00 +19°C° 0 mm 1 mps 678 mmHg 39%
    02:00 +18°C° 0 mm 1 mps 678 mmHg 41%
    03:00 +18°C° 0 mm 1 mps 678 mmHg 44%
    04:00 +16°C° 0 mm 1 mps 678 mmHg 46%
    05:00 +16°C° 0 mm 1 mps 677 mmHg 49%
    06:00 +18°C° 0 mm 1 mps 678 mmHg 45%
    07:00 +20°C° 0 mm 1 mps 679 mmHg 42%
    08:00 +21°C° 0 mm 1 mps 679 mmHg 38%
    09:00 +23°C° 0 mm 1 mps 680 mmHg 33%
    10:00 +24°C° 0 mm 1 mps 680 mmHg 29%
    11:00 +26°C° 0 mm 1 mps 680 mmHg 25%
    12:00 +26°C° 0 mm 2 mps 680 mmHg 22%
    13:00 +27°C° 0 mm 2 mps 679 mmHg 20%
    14:00 +28°C° 0 mm 3 mps 679 mmHg 18%
    15:00 +27°C° 0 mm 3 mps 679 mmHg 19%
    16:00 +27°C° 0 mm 3 mps 679 mmHg 19%
    17:00 +26°C° 0 mm 3 mps 679 mmHg 19%
    18:00 +25°C° 0 mm 3 mps 679 mmHg 22%
    19:00 +23°C° 0 mm 2 mps 679 mmHg 24%
    20:00 +21°C° 0 mm 2 mps 679 mmHg 26%
    21:00 +20°C° 0 mm 2 mps 679 mmHg 28%
    22:00 +20°C° 0 mm 1 mps 679 mmHg 30%
    23:00 +20°C° 0 mm 1 mps 679 mmHg 31%

    Day after tomorrow, 22 September, Saturday

    Time Temperature Precipitation Wind Pressure Humidity
    00:00 +19°C° 0 mm 1 mps 679 mmHg 34%
    01:00 +18°C° 0 mm 1 mps 679 mmHg 36%
    02:00 +18°C° 0 mm 1 mps 679 mmHg 38%
    03:00 +16°C° 0 mm 1 mps 679 mmHg 40%
    04:00 +15°C° 0 mm 1 mps 678 mmHg 42%
    05:00 +14°C° 0 mm 0 mps 678 mmHg 44%
    06:00 +18°C° 0 mm 1 mps 679 mmHg 39%
    07:00 +20°C° 0 mm 1 mps 680 mmHg 34%
    08:00 +22°C° 0 mm 1 mps 680 mmHg 30%
    09:00 +23°C° 0 mm 1 mps 681 mmHg 27%
    10:00 +25°C° 0 mm 1 mps 681 mmHg 25%
    11:00 +26°C° 0 mm 1 mps 681 mmHg 23%
    12:00 +27°C° 0 mm 1 mps 680 mmHg 21%
    13:00 +27°C° 0 mm 2 mps 680 mmHg 20%
    14:00 +28°C° 0 mm 2 mps 680 mmHg 19%
    15:00 +28°C° 0 mm 2 mps 680 mmHg 19%
    16:00 +27°C° 0 mm 2 mps 680 mmHg 20%
    17:00 +27°C° 0 mm 2 mps 679 mmHg 20%
    18:00 +25°C° 0 mm 2 mps 679 mmHg 24%
    19:00 +24°C° 0 mm 2 mps 679 mmHg 27%
    20:00 +22°C° 0 mm 1 mps 679 mmHg 30%
    21:00 +21°C° 0 mm 1 mps 679 mmHg 32%
    22:00 +21°C° 0 mm 1 mps 679 mmHg 33%
    23:00 +20°C° 0 mm 1 mps 679 mmHg 35%

    23 September, Sunday

    Time Temperature Precipitation Wind Pressure Humidity
    00:00 +20°C° 0 mm 1 mps 679 mmHg 37%
    01:00 +19°C° 0 mm 1 mps 679 mmHg 39%
    02:00 +19°C° 0 mm 1 mps 679 mmHg 41%
    03:00 +18°C° 0 mm 1 mps 679 mmHg 42%
    04:00 +15°C° 0 mm 0 mps 679 mmHg 44%
    05:00 +15°C° 0 mm 0 mps 679 mmHg 46%
    06:00 +17°C° 0 mm 0 mps 680 mmHg 41%
    07:00 +19°C° 0 mm 0 mps 680 mmHg 36%
    08:00 +21°C° 0 mm 0 mps 681 mmHg 31%
    09:00 +24°C° 0 mm 1 mps 681 mmHg 28%
    10:00 +26°C° 0 mm 1 mps 681 mmHg 25%
    11:00 +27°C° 0 mm 1 mps 682 mmHg 23%
    12:00 +28°C° 0 mm 2 mps 681 mmHg 21%
    13:00 +28°C° 0 mm 2 mps 681 mmHg 20%
    14:00 +29°C° 0 mm 3 mps 681 mmHg 19%
    15:00 +28°C° 0 mm 3 mps 681 mmHg 19%
    16:00 +28°C° 0 mm 3 mps 681 mmHg 20%
    17:00 +28°C° 0 mm 3 mps 681 mmHg 20%
    18:00 +26°C° 0 mm 3 mps 681 mmHg 23%
    19:00 +25°C° 0 mm 2 mps 681 mmHg 26%
    20:00 +23°C° 0 mm 2 mps 681 mmHg 29%
    21:00 +21°C° 0 mm 2 mps 681 mmHg 31%
    22:00 +21°C° 0 mm 2 mps 681 mmHg 33%
    23:00 +20°C° 0 mm 2 mps 681 mmHg 35%

    24 September, Monday

    Time Temperature Precipitation Wind Pressure Humidity
    00:00 +19°C° 0 mm 2 mps 681 mmHg 36%
    01:00 +19°C° 0 mm 2 mps 680 mmHg 38%
    02:00 +18°C° 0 mm 2 mps 680 mmHg 39%
    03:00 +18°C° 0 mm 2 mps 680 mmHg 40%
    04:00 +17°C° 0 mm 2 mps 680 mmHg 41%
    05:00 +16°C° 0 mm 2 mps 680 mmHg 43%
    06:00 +18°C° 0 mm 2 mps 680 mmHg 38%
    07:00 +20°C° 0 mm 2 mps 681 mmHg 34%
    08:00 +21°C° 0 mm 2 mps 681 mmHg 30%
    09:00 +24°C° 0 mm 2 mps 681 mmHg 26%
    10:00 +26°C° 0 mm 1 mps 681 mmHg 21%
    11:00 +27°C° 0 mm 1 mps 681 mmHg 17%
    12:00 +28°C° 0 mm 1 mps 680 mmHg 16%
    13:00 +29°C° 0 mm 1 mps 680 mmHg 14%
    14:00 +30°C° 0 mm 1 mps 679 mmHg 13%
    15:00 +29°C° 0 mm 1 mps 679 mmHg 13%
    16:00 +29°C° 0 mm 1 mps 679 mmHg 14%
    17:00 +28°C° 0 mm 2 mps 679 mmHg 14%
    18:00 +26°C° 0 mm 1 mps 679 mmHg 16%
    19:00 +24°C° 0 mm 1 mps 678 mmHg 19%
    20:00 +22°C° 0 mm 1 mps 678 mmHg 21%
    21:00 +22°C° 0 mm 1 mps 678 mmHg 21%
    22:00 +21°C° 0 mm 1 mps 677 mmHg 22%
    23:00 +20°C° 0 mm 1 mps 677 mmHg 22%

    25 September, Tuesday

    Time Temperature Precipitation Wind Pressure Humidity
    00:00 +20°C° 0 mm 1 mps 677 mmHg 23%
    01:00 +19°C° 0 mm 1 mps 677 mmHg 24%
    02:00 +17°C° 0 mm 0 mps 676 mmHg 24%
    03:00 +16°C° 0 mm 0 mps 676 mmHg 25%
    04:00 +16°C° 0 mm 0 mps 676 mmHg 25%
    05:00 +16°C° 0 mm 1 mps 676 mmHg 26%
    06:00 +20°C° 0 mm 1 mps 677 mmHg 23%
    07:00 +23°C° 0 mm 1 mps 677 mmHg 19%
    08:00 +25°C° 0 mm 1 mps 678 mmHg 16%
    09:00 +27°C° 0 mm 1 mps 678 mmHg 15%
    10:00 +28°C° 0 mm 1 mps 678 mmHg 14%
    11:00 +29°C° 0 mm 1 mps 678 mmHg 13%
    12:00 +30°C° 0 mm 1 mps 677 mmHg 13%
    13:00 +30°C° 0 mm 1 mps 677 mmHg 12%
    14:00 +31°C° 0 mm 1 mps 676 mmHg 12%
    15:00 +30°C° 0 mm 2 mps 676 mmHg 13%
    16:00 +30°C° 0 mm 2 mps 676 mmHg 14%
    17:00 +29°C° 0 mm 2 mps 676 mmHg 14%
    18:00 +27°C° 0 mm 2 mps 675 mmHg 16%
    19:00 +25°C° 0 mm 2 mps 675 mmHg 18%
    20:00 +24°C° 0 mm 1 mps 675 mmHg 20%
    21:00 +23°C° 0 mm 2 mps 675 mmHg 22%
    22:00 +23°C° 0 mm 2 mps 675 mmHg 23%
    23:00 +21°C° 0 mm 2 mps 675 mmHg 24%
    Show more